| time (UTC) | temp F | wind direction | speed knots | gust knots | rain 1hr in | rain 24hr in | rain mn in | humidity % | barometer mb |
| 20260504141148 | 56 | 259 | 1.7 | 3.5 | 0.00 | 0.00 | 0.00 | 55 | 1018.0 |
| 20260504140644 | 57 | 200 | 2.6 | 13.0 | 0.00 | 0.00 | 0.00 | 53 | 1017.9 |
| 20260504140140 | 56 | 276 | 5.2 | 7.0 | 0.00 | 0.00 | 0.00 | 54 | 1017.9 |
| 20260504130608 | 56 | 246 | 2.6 | 7.0 | 0.00 | 0.00 | 0.00 | 53 | 1018.0 |
| 20260504130105 | 56 | 246 | 4.3 | 5.2 | 0.00 | 0.00 | 0.00 | 53 | 1018.0 |
| 20260504110456 | 47 | 186 | 0.9 | 5.2 | 0.00 | 0.00 | 0.00 | 63 | 1017.4 |
| 20260504100418 | 47 | 174 | 1.7 | 3.5 | 0.00 | 0.00 | 0.00 | 62 | 1017.2 |
| 20260504081811 | 47 | 256 | 0.0 | 0.9 | 0.00 | 0.00 | 0.00 | 58 | 1017.6 |
| 20260504081308 | 47 | 227 | 0.9 | 1.7 | 0.00 | 0.00 | 0.00 | 58 | 1017.4 |
| 20260504080804 | 47 | 281 | 1.7 | 2.6 | 0.00 | 0.00 | 0.00 | 58 | 1017.3 |
| 20260504080301 | 47 | 281 | 1.7 | 2.6 | 0.00 | 0.00 | 0.00 | 58 | 1017.3 |
| 20260504070228 | 46 | 209 | 0.0 | 0.0 | 0.00 | 0.00 | 0.00 | 59 | 1017.8 |
| 20260504060149 | 46 | 188 | 0.0 | 0.9 | 0.00 | 0.00 | 0.00 | 53 | 1018.5 |
| 20260504050617 | 47 | 252 | 1.7 | 1.7 | 0.00 | 0.00 | 0.00 | 50 | 1018.5 |
| 20260504050114 | 47 | 240 | 0.0 | 2.6 | 0.00 | 0.00 | 0.00 | 50 | 1018.5 |
| 20260504045611 | 47 | 247 | 1.7 | 2.6 | 0.00 | 0.00 | 0.00 | 50 | 1018.2 |
| 20260504045106 | 47 | 273 | 0.9 | 1.7 | 0.00 | 0.00 | 0.00 | 51 | 1018.4 |
| 20260504044604 | 46 | 239 | 0.0 | 1.7 | 0.00 | 0.00 | 0.00 | 51 | 1018.2 |
| 20260504044100 | 46 | 179 | 0.9 | 2.6 | 0.00 | 0.00 | 0.00 | 54 | 1018.1 |
| 20260504043558 | 46 | 195 | 0.9 | 0.9 | 0.00 | 0.00 | 0.00 | 53 | 1018.1 |
| 20260504043055 | 46 | 217 | 0.0 | 0.9 | 0.00 | 0.00 | 0.00 | 51 | 1018.2 |
| 20260504042552 | 45 | 169 | 0.0 | 0.9 | 0.00 | 0.00 | 0.00 | 51 | 1017.9 |
| 20260504042049 | 46 | 218 | 0.0 | 0.9 | 0.00 | 0.00 | 0.00 | 51 | 1018.2 |
| 20260504041545 | 46 | 207 | 0.0 | 0.9 | 0.00 | 0.00 | 0.00 | 49 | 1018.1 |
| 20260504041041 | 46 | 201 | 0.0 | 0.9 | 0.00 | 0.00 | 0.00 | 49 | 1018.0 |
| 20260504040538 | 46 | 195 | 0.9 | 1.7 | 0.00 | 0.00 | 0.00 | 49 | 1018.0 |
| 20260504040035 | 46 | 222 | 0.9 | 0.9 | 0.00 | 0.00 | 0.00 | 49 | 1018.2 |
| 20260504035532 | 46 | 198 | 0.0 | 0.0 | 0.00 | 0.00 | 0.00 | 48 | 1018.0 |
| 20260504035028 | 46 | 211 | 0.0 | 0.9 | 0.00 | 0.00 | 0.00 | 49 | 1018.2 |
| 20260504034526 | 46 | 211 | 0.0 | 1.7 | 0.00 | 0.00 | 0.00 | 48 | 1017.9 |
| 20260504034023 | 45 | 214 | 0.0 | 0.9 | 0.00 | 0.00 | 0.00 | 49 | 1018.0 |
| 20260504033521 | 46 | 188 | 0.0 | 0.9 | 0.00 | 0.00 | 0.00 | 48 | 1017.9 |
| 20260504033018 | 46 | 225 | 0.9 | 1.7 | 0.00 | 0.00 | 0.00 | 48 | 1018.1 |
| 20260504032515 | 46 | 222 | 0.9 | 0.9 | 0.00 | 0.00 | 0.00 | 47 | 1018.0 |
| 20260504032011 | 47 | 179 | 0.0 | 0.9 | 0.00 | 0.00 | 0.00 | 45 | 1017.8 |
| 20260504031509 | 47 | 184 | 0.0 | 0.0 | 0.00 | 0.00 | 0.00 | 46 | 1017.8 |
| 20260504031005 | 47 | 185 | 0.0 | 0.9 | 0.00 | 0.00 | 0.00 | 47 | 1018.0 |
| 20260504030502 | 46 | 192 | 0.0 | 0.9 | 0.00 | 0.00 | 0.00 | 48 | 1017.8 |
| 20260504025958 | 46 | 165 | 0.0 | 0.0 | 0.00 | 0.00 | 0.00 | 49 | 1017.9 |
| 20260504025455 | 45 | 179 | 0.0 | 0.0 | 0.00 | 0.00 | 0.00 | 49 | 1017.8 |
| 20260504024952 | 45 | 209 | 0.0 | 0.0 | 0.00 | 0.00 | 0.00 | 50 | 1018.1 |
| 20260504024449 | 44 | 181 | 0.0 | 0.0 | 0.00 | 0.00 | 0.00 | 50 | 1018.2 |
| 20260504023946 | 43 | 182 | 0.0 | 0.0 | 0.00 | 0.00 | 0.00 | 53 | 1017.9 |
| 20260504023442 | 43 | 134 | 0.0 | 0.0 | 0.00 | 0.00 | 0.00 | 53 | 1018.0 |
| 20260504022938 | 43 | 134 | 0.0 | 0.0 | 0.00 | 0.00 | 0.00 | 52 | 1018.1 |
| 20260504022435 | 43 | 172 | 0.0 | 0.0 | 0.00 | 0.00 | 0.00 | 53 | 1018.2 |
| 20260504021931 | 43 | 167 | 0.0 | 0.0 | 0.00 | 0.00 | 0.00 | 53 | 1018.0 |
| 20260504021429 | 43 | 179 | 0.0 | 0.0 | 0.00 | 0.00 | 0.00 | 52 | 1018.1 |
| 20260504020926 | 43 | 195 | 0.0 | 0.0 | 0.00 | 0.00 | 0.00 | 53 | 1018.2 |
| 20260504020422 | 44 | 195 | 0.0 | 0.0 | 0.00 | 0.00 | 0.00 | 52 | 1018.1 |
| 20260504015919 | 44 | 195 | 0.0 | 0.0 | 0.00 | 0.00 | 0.00 | 51 | 1018.0 |
| 20260504015415 | 45 | 196 | 0.0 | 0.0 | 0.00 | 0.00 | 0.00 | 50 | 1018.0 |
| 20260504014911 | 46 | 145 | 0.0 | 0.9 | 0.00 | 0.00 | 0.00 | 50 | 1018.0 |
| 20260504014407 | 45 | 145 | 0.0 | 0.9 | 0.00 | 0.00 | 0.00 | 50 | 1017.8 |
| 20260504013904 | 45 | 153 | 0.0 | 0.0 | 0.00 | 0.00 | 0.00 | 52 | 1017.9 |
| 20260504013403 | 45 | 155 | 0.0 | 0.0 | 0.00 | 0.00 | 0.00 | 50 | 1017.8 |
| 20260504012858 | 46 | 148 | 0.0 | 0.0 | 0.00 | 0.00 | 0.00 | 51 | 1017.7 |
| 20260504012357 | 46 | 211 | 0.0 | 0.0 | 0.00 | 0.00 | 0.00 | 48 | 1017.7 |
| 20260504011854 | 46 | 207 | 0.0 | 0.0 | 0.00 | 0.00 | 0.00 | 49 | 1017.5 |
| 20260504011350 | 46 | 146 | 0.0 | 0.0 | 0.00 | 0.00 | 0.00 | 53 | 1017.5 |
| 20260504010846 | 46 | 141 | 0.9 | 1.7 | 0.00 | 0.00 | 0.00 | 53 | 1017.2 |
| 20260504010342 | 46 | 151 | 0.9 | 1.7 | 0.00 | 0.00 | 0.00 | 52 | 1017.4 |
| 20260504005839 | 46 | 156 | 0.0 | 0.0 | 0.00 | 0.00 | 0.00 | 49 | 1017.6 |
| 20260504005336 | 46 | 157 | 0.9 | 1.7 | 0.00 | 0.00 | 0.00 | 50 | 1017.4 |
| 20260504004833 | 47 | 171 | 0.9 | 0.9 | 0.00 | 0.00 | 0.00 | 49 | 1017.4 |
| 20260504004331 | 47 | 234 | 0.0 | 0.0 | 0.00 | 0.00 | 0.00 | 47 | 1017.4 |
| 20260504003827 | 48 | 248 | 0.0 | 0.9 | 0.00 | 0.00 | 0.00 | 46 | 1017.3 |
| 20260504003324 | 49 | 155 | 0.9 | 1.7 | 0.00 | 0.00 | 0.00 | 46 | 1017.1 |
| 20260504002821 | 50 | 190 | 0.9 | 0.9 | 0.00 | 0.00 | 0.00 | 43 | 1017.1 |
| 20260504002317 | 51 | 220 | 0.0 | 0.9 | 0.00 | 0.00 | 0.00 | 38 | 1017.1 |
| 20260504001815 | 51 | 224 | 0.0 | 0.0 | 0.00 | 0.00 | 0.00 | 38 | 1017.1 |
| 20260504001312 | 52 | 227 | 0.0 | 3.5 | 0.00 | 0.00 | 0.00 | 37 | 1017.0 |
| 20260504000809 | 51 | 252 | 0.9 | 3.5 | 0.00 | 0.00 | 0.00 | 35 | 1017.0 |
| 20260504000306 | 52 | 219 | 0.0 | 1.7 | 0.00 | 0.00 | 0.00 | 42 | 1016.7 |
| 20260503235804 | 53 | 194 | 0.9 | 2.6 | 0.00 | 0.00 | 0.00 | 36 | 1017.1 |
| 20260503235301 | 53 | 219 | 0.0 | 1.7 | 0.00 | 0.00 | 0.00 | 36 | 1017.3 |
| 20260503234759 | 53 | 236 | 1.7 | 3.5 | 0.00 | 0.00 | 0.00 | 34 | 1017.0 |
| 20260503234256 | 54 | 244 | 1.7 | 3.5 | 0.00 | 0.00 | 0.00 | 34 | 1017.1 |
| 20260503233754 | 54 | 299 | 1.7 | 1.7 | 0.00 | 0.00 | 0.00 | 34 | 1017.0 |
| 20260503233249 | 55 | 247 | 0.0 | 0.9 | 0.00 | 0.00 | 0.00 | 34 | 1017.0 |
| 20260503232746 | 55 | 233 | 1.7 | 6.1 | 0.00 | 0.00 | 0.00 | 32 | 1017.3 |
| 20260503232243 | 56 | 207 | 0.0 | 6.1 | 0.00 | 0.00 | 0.00 | 32 | 1017.2 |
| 20260503231741 | 56 | 249 | 1.7 | 5.2 | 0.00 | 0.00 | 0.00 | 32 | 1017.2 |
| 20260503231238 | 56 | 252 | 5.2 | 8.7 | 0.00 | 0.00 | 0.00 | 32 | 1017.3 |
| 20260503230729 | 57 | 320 | 1.7 | 2.6 | 0.00 | 0.00 | 0.00 | 33 | 1017.3 |
| 20260503230226 | 57 | 243 | 4.3 | 6.1 | 0.00 | 0.00 | 0.00 | 30 | 1017.2 |
| 20260503225718 | 57 | 263 | 1.7 | 5.2 | 0.00 | 0.00 | 0.00 | 33 | 1017.3 |
| 20260503225217 | 58 | 121 | 0.9 | 2.6 | 0.00 | 0.00 | 0.00 | 32 | 1017.3 |
| 20260503224714 | 57 | 250 | 3.5 | 6.1 | 0.00 | 0.00 | 0.00 | 30 | 1017.6 |
| 20260503224212 | 58 | 236 | 2.6 | 2.6 | 0.00 | 0.00 | 0.00 | 32 | 1017.4 |
| 20260503223710 | 58 | 312 | 2.6 | 5.2 | 0.00 | 0.00 | 0.00 | 30 | 1017.3 |
| 20260503223207 | 58 | 239 | 3.5 | 6.1 | 0.00 | 0.00 | 0.00 | 29 | 1017.3 |
| 20260503222703 | 57 | 253 | 1.7 | 6.1 | 0.00 | 0.00 | 0.00 | 29 | 1016.8 |
| 20260503222201 | 58 | 279 | 3.5 | 7.0 | 0.00 | 0.00 | 0.00 | 30 | 1017.5 |
| 20260503221659 | 58 | 133 | 2.6 | 3.5 | 0.00 | 0.00 | 0.00 | 30 | 1017.2 |
| 20260503221156 | 58 | 254 | 1.7 | 2.6 | 0.00 | 0.00 | 0.00 | 27 | 1017.1 |
| 20260503220653 | 58 | 259 | 3.5 | 8.7 | 0.00 | 0.00 | 0.00 | 29 | 1017.4 |
| 20260503220149 | 58 | 121 | 0.9 | 3.5 | 0.00 | 0.00 | 0.00 | 30 | 1017.4 |
| 20260503215647 | 59 | 219 | 3.5 | 5.2 | 0.00 | 0.00 | 0.00 | 31 | 1017.3 |
| 20260503215143 | 58 | 208 | 0.9 | 5.2 | 0.00 | 0.00 | 0.00 | 29 | 1017.3 |
| 20260503214643 | 58 | 132 | 1.7 | 7.0 | 0.00 | 0.00 | 0.00 | 30 | 1017.5 |
| 20260503214138 | 58 | 288 | 2.6 | 7.8 | 0.00 | 0.00 | 0.00 | 28 | 1017.7 |
| 20260503213638 | 58 | 303 | 0.9 | 3.5 | 0.00 | 0.00 | 0.00 | 30 | 1017.6 |
| 20260503213134 | 58 | 255 | 4.3 | 8.7 | 0.00 | 0.00 | 0.00 | 30 | 1017.6 |
| 20260503212631 | 59 | 285 | 2.6 | 8.7 | 0.00 | 0.00 | 0.00 | 29 | 1017.7 |
| 20260503212129 | 58 | 223 | 1.7 | 7.0 | 0.00 | 0.00 | 0.00 | 32 | 1017.5 |
| 20260503211627 | 58 | 246 | 3.5 | 5.2 | 0.00 | 0.00 | 0.00 | 31 | 1017.4 |
| 20260503211122 | 59 | 195 | 4.3 | 8.7 | 0.00 | 0.00 | 0.00 | 29 | 1017.6 |
| 20260503210618 | 58 | 144 | 1.7 | 6.1 | 0.00 | 0.00 | 0.00 | 31 | 1017.5 |
| 20260503210115 | 58 | 271 | 5.2 | 7.0 | 0.00 | 0.00 | 0.00 | 31 | 1017.5 |
| 20260503205611 | 58 | 229 | 1.7 | 6.1 | 0.00 | 0.00 | 0.00 | 31 | 1017.5 |
| 20260503205107 | 57 | 236 | 2.6 | 5.2 | 0.00 | 0.00 | 0.00 | 30 | 1017.7 |
| 20260503204604 | 56 | 243 | 4.3 | 9.6 | 0.00 | 0.00 | 0.00 | 33 | 1017.7 |
| 20260503204101 | 58 | 268 | 0.9 | 2.6 | 0.00 | 0.00 | 0.00 | 29 | 1017.8 |
| 20260503203558 | 58 | 268 | 2.6 | 7.0 | 0.00 | 0.00 | 0.00 | 34 | 1017.7 |
| 20260503203055 | 57 | 199 | 4.3 | 7.8 | 0.00 | 0.00 | 0.00 | 28 | 1017.9 |
| 20260503202553 | 57 | 292 | 5.2 | 6.1 | 0.00 | 0.00 | 0.00 | 31 | 1018.0 |
| 20260503202051 | 58 | 301 | 3.5 | 8.7 | 0.00 | 0.00 | 0.00 | 30 | 1018.0 |
| 20260503201549 | 57 | 244 | 2.6 | 3.5 | 0.00 | 0.00 | 0.00 | 30 | 1018.0 |
| 20260503201046 | 57 | 230 | 2.6 | 3.5 | 0.00 | 0.00 | 0.00 | 29 | 1018.2 |
| 20260503200542 | 56 | 166 | 1.7 | 8.7 | 0.00 | 0.00 | 0.00 | 35 | 1018.4 |
| 20260503200039 | 57 | 268 | 4.3 | 7.0 | 0.00 | 0.00 | 0.00 | 31 | 1018.1 |
| 20260503195536 | 57 | 330 | 5.2 | 7.0 | 0.00 | 0.00 | 0.00 | 29 | 1018.1 |
| 20260503195032 | 57 | 239 | 1.7 | 6.1 | 0.00 | 0.00 | 0.00 | 33 | 1018.2 |
| 20260503194530 | 57 | 275 | 5.2 | 8.7 | 0.00 | 0.00 | 0.00 | 30 | 1018.5 |
| 20260503194030 | 57 | 285 | 2.6 | 5.2 | 0.00 | 0.00 | 0.00 | 31 | 1018.7 |
| 20260503193527 | 56 | 352 | 3.5 | 7.0 | 0.00 | 0.00 | 0.00 | 30 | 1018.6 |
| 20260503193022 | 55 | 35 | 2.6 | 9.6 | 0.00 | 0.00 | 0.00 | 31 | 1018.8 |
| 20260503192518 | 58 | 253 | 1.7 | 5.2 | 0.00 | 0.00 | 0.00 | 30 | 1018.9 |
| 20260503192014 | 57 | 191 | 3.5 | 5.2 | 0.00 | 0.00 | 0.00 | 30 | 1019.0 |
| 20260503191511 | 56 | 254 | 3.5 | 5.2 | 0.00 | 0.00 | 0.00 | 30 | 1019.1 |
| 20260503191008 | 56 | 263 | 4.3 | 9.6 | 0.00 | 0.00 | 0.00 | 35 | 1019.1 |
| 20260503190505 | 57 | 269 | 3.5 | 3.5 | 0.00 | 0.00 | 0.00 | 35 | 1019.1 |
| 20260503190002 | 56 | 130 | 0.9 | 2.6 | 0.00 | 0.00 | 0.00 | 33 | 1019.3 |
| 20260503185458 | 56 | 303 | 0.9 | 7.8 | 0.00 | 0.00 | 0.00 | 37 | 1019.4 |
| 20260503184957 | 55 | 235 | 1.7 | 6.1 | 0.00 | 0.00 | 0.00 | 35 | 1019.4 |
| 20260503184454 | 56 | 169 | 3.5 | 7.8 | 0.00 | 0.00 | 0.00 | 35 | 1019.2 |
| 20260503183950 | 56 | 66 | 3.5 | 3.5 | 0.00 | 0.00 | 0.00 | 34 | 1019.2 |
| 20260503183447 | 55 | 217 | 1.7 | 2.6 | 0.00 | 0.00 | 0.00 | 33 | 1019.4 |
| 20260503182944 | 54 | 337 | 0.9 | 6.1 | 0.00 | 0.00 | 0.00 | 34 | 1019.4 |
| 20260503182443 | 55 | 173 | 0.9 | 2.6 | 0.00 | 0.00 | 0.00 | 36 | 1019.6 |
| 20260503181940 | 54 | 284 | 3.5 | 7.0 | 0.00 | 0.00 | 0.00 | 32 | 1019.5 |
| 20260503181437 | 55 | 98 | 1.7 | 3.5 | 0.00 | 0.00 | 0.00 | 34 | 1019.6 |
| 20260503180933 | 56 | 229 | 2.6 | 3.5 | 0.00 | 0.00 | 0.00 | 35 | 1019.6 |
| 20260503180431 | 55 | 140 | 0.9 | 2.6 | 0.00 | 0.00 | 0.00 | 42 | 1019.4 |
| 20260503175928 | 53 | 181 | 0.9 | 5.2 | 0.00 | 0.00 | 0.00 | 33 | 1019.8 |
| 20260503175426 | 53 | 345 | 1.7 | 5.2 | 0.00 | 0.00 | 0.00 | 33 | 1019.9 |
| 20260503174921 | 53 | 265 | 0.9 | 5.2 | 0.00 | 0.00 | 0.00 | 36 | 1019.8 |
| 20260503174421 | 54 | 284 | 0.9 | 1.7 | 0.00 | 0.00 | 0.00 | 38 | 1020.0 |
| 20260503173920 | 54 | 277 | 4.3 | 8.7 | 0.00 | 0.00 | 0.00 | 32 | 1020.2 |
| 20260503173417 | 53 | 313 | 4.3 | 5.2 | 0.00 | 0.00 | 0.00 | 34 | 1019.9 |
| 20260503172914 | 54 | 303 | 1.7 | 3.5 | 0.00 | 0.00 | 0.00 | 36 | 1020.1 |
| 20260503172411 | 54 | 266 | 2.6 | 2.6 | 0.00 | 0.00 | 0.00 | 40 | 1020.1 |
| 20260503171907 | 52 | 242 | 2.6 | 2.6 | 0.00 | 0.00 | 0.00 | 41 | 1019.8 |
| 20260503171404 | 51 | 163 | 2.6 | 5.2 | 0.00 | 0.00 | 0.00 | 42 | 1020.1 |
| 20260503170902 | 52 | 141 | 5.2 | 7.0 | 0.00 | 0.00 | 0.00 | 38 | 1020.2 |
| 20260503170358 | 52 | 52 | 2.6 | 7.8 | 0.00 | 0.00 | 0.00 | 36 | 1020.2 |
| 20260503150749 | 46 | 269 | 2.6 | 6.1 | 0.00 | 0.00 | 0.00 | 49 | 1021.4 |
| 20260503150245 | 46 | 331 | 5.2 | 7.0 | 0.00 | 0.00 | 0.00 | 47 | 1021.0 |